Location: Newark
(51.3318°N, 0.0053°E)
Time: 11:55:26
(UTC+00:00)

MOZHAYETS 4 - Pass Details

Date: 03 July 2022
Orbit: 660 x 679 km, 98.2° (Epoch: 11 August)

Event Time Altitude Azimuth Distance (km) Brightness Sun altitude
Rises 00:29:16 0° 111° (ESE) 3,025 10.9 -15.5°
Reaches altitude 10° 00:32:20 10° 89° (E) 2,112 10.4 -15.4°
Maximum altitude 00:34:57 15° 55° (NE) 1,787 10.5 -15.4°
Drops below altitude 10° 00:37:33 10° 20° (NNE) 2,113 11.6 -15.3°
Sets 00:40:37 0° 358° (N) 3,027 12.8 -15.3°
